This is the latest recevied weather packets stored in our database for station/object W4SKW. If no packets are shown the sender has not sent any weather packets the latest 1 day(s).
| Time | Temp. | Humidity | Pressure | Rain* | Wind** | Luminosity | Snow |
|---|---|---|---|---|---|---|---|
| 1778024091 | 21.11° C | 62% | 1013.5 hPa | 0 mm | 0 m/s | 31 W/m² | - |
| 1778023787 | 21.11° C | 61% | 1013.7 hPa | 0 mm | 0 m/s | 38 W/m² | - |
| 1778023064 | 22.22° C | 60% | 1013.8 hPa | 0 mm | 0 m/s | 63 W/m² | - |
| 1778022763 | 22.22° C | 60% | 1013.8 hPa | 0 mm | 0 m/s | 63 W/m² | - |
| 1778022461 | 22.22° C | 64% | 1013.5 hPa | 0 mm | 0 m/s | 61 W/m² | - |
| 1778022157 | 22.78° C | 59% | 1013.7 hPa | 0 mm | 0 m/s | 63 W/m² | - |
| 1778021854 | 22.78° C | 61% | 1013.5 hPa | 0 mm | 0 m/s | 87 W/m² | - |
| 1778021551 | 23.33° C | 50% | 1013.5 hPa | 0 mm | 0 m/s | 115 W/m² | - |
| 1778021246 | 22.78° C | 59% | 1013.5 hPa | 0 mm | 0 m/s | 127 W/m² | - |
| 1778020944 | 22.78° C | 59% | 1013.6 hPa | 0 mm | 0 m/s | 164 W/m² | - |
| 1778020642 | 22.22° C | 62% | 1013.6 hPa | 0 mm | 0 m/s | 103 W/m² | - |
| 1778020338 | 21.67° C | 64% | 1013.9 hPa | 0 mm | 0 m/s | 123 W/m² | - |
| 1778020034 | 22.22° C | 60% | 1013.9 hPa | 0 mm | 0 m/s | 60 W/m² | - |
| 1778019730 | 22.22° C | 59% | 1013.8 hPa | 0 mm | 0 m/s | 59 W/m² | - |
| 1778019427 | 22.78° C | 62% | 1013.7 hPa | 0 mm | 0 m/s | 65 W/m² | - |
| 1778019124 | 22.22° C | 62% | 1013.5 hPa | 0 mm | 0 m/s | 94 W/m² | - |
| 1778018821 | 22.22° C | 62% | 1013.5 hPa | 0 mm | 0 m/s | 94 W/m² | - |
| 1778018519 | 22.22° C | 64% | 1013.7 hPa | 0 mm | 0 m/s | 104 W/m² | - |
| 1778018216 | 22.22° C | 59% | 1013.9 hPa | 0 mm | 0 m/s | 101 W/m² | - |
| 1778017914 | 22.78° C | 58% | 1013.9 hPa | 0 mm | 0 m/s | 133 W/m² | - |
| 1778017611 | 22.78° C | 58% | 1014 hPa | 0 mm | 0 m/s | 107 W/m² | - |
| 1778017309 | 22.78° C | 62% | 1014 hPa | 0 mm | 0 m/s | 116 W/m² | - |
| 1778017006 | 22.78° C | 58% | 1014.2 hPa | 0 mm | 0 m/s | 113 W/m² | - |
| 1778016703 | 22.78° C | 53% | 1014.1 hPa | 0 mm | 0 m/s | 106 W/m² | - |
| 1778016398 | 22.78° C | 63% | 1013.9 hPa | 0 mm | 0 m/s | 128 W/m² | - |
* Rain latest hour (hover to see other rain measurements)
** Current wind speed in m/s (hover to see current wind gust speed)